Location: Zagreb
(45.8000°N, 16.0000°E)
Time: 08:49:22
(UTC+01:00)

Transit 2A Rocket - Pass Details

Date: 03 October 2023
Orbit: 593 x 903 km, 66.7° (Epoch: 01 December)

Event Time Altitude Azimuth Distance (km) Brightness Sun altitude
Rises 22:24:30 0° 323° (NW) 2,911 8.9 -38.3°
Reaches altitude 10° 22:26:50 10° 318° (NW) 1,972 7.8 -38.6°
Enters shadow 22:27:13 12° 317° (NW) 1,828 7.6 -38.7°
